[[{"header":{"parameterUnit":"m.s-1","parameterCategory":1,"la1":30.2991,"la2":30.254,"lo1":-89.0895,"lo2":-89.0444,"dy":0.0017,"dx":0.0017,"nx":28,"ny":28,"refTime":"2023-03-17T21:00:00:Z","depth":0,"parameterNumber":2,"parameterNumberName":"U-component_of_WINDS"},"data":[0,0,0,0,0,0,0,0,0,0,0,0,0,0,0,0,0,0,0,0,0,0,0,0,0,0,0,0,0,0,0,0,0,0,0,0,0,0,0,0,0,0,0,0,0,0,0,0,0,0,0,0,0,0,0,0,0,0,0.6005,0.6004,0,0.5926,0.5925,0.5924,0.5908,0.5908,0.5909,0.5909,0.5826,0.5823,0.5821,0,0,0,0,0,0,0,0,0,0,0,0,0,0.6138,0.6136,0.6005,0.6004,0.6003,0.5926,0.5925,0.5924,0.5908,0.5908,0.5909,0.591,0.5827,0.5824,0.582,0,0,0,0,0,0,0,0,0,0,0,0,0,0.6072,0.6135,0.6005,0.5985,0.5983,0.5927,0.5925,0.5924,0.5907,0.5908,0.5909,0.591,0.5828,0.5824,0.582,0.5777,0,0,0.5807,0.5805,0,0,0,0,0,0,0,0,0.6076,0.6067,0.5989,0.5987,0.5984,0.5928,0.5942,0.5874,0.5907,0.5936,0.5909,0.591,0.5859,0.5852,0.5836,0.5773,0.5769,0.5807,0.5804,0.5803,0.5801,0,0,0,0,0,0,0,0.608,0.607,0.5974,0.5988,0.5985,0.598,0.5971,0.5929,0.5893,0.5934,0.5932,0.5923,0.5858,0.584,0.5833,0.5768,0.5807,0.5803,0.5801,0.5799,0.5667,0.5666,0,0,0,0,0,0,0.6089,0.6074,0.5976,0.5971,0.6033,0.5977,0.5967,0.5945,0.5894,0.5887,0.5923,0.5923,0.5846,0.5838,0.583,0.5777,0.5803,0.5799,0.5796,0.5668,0.5666,0.5665,0,0,0,0,0,0,0.6092,0.608,0.5979,0.6022,0.6009,0.5974,0.5948,0.5943,0.5925,0.5886,0.5879,0.5911,0.5847,0.5836,0.5791,0.5773,0.5797,0.5793,0.5669,0.5667,0.5666,0.5668,0,0,0,0,0,0,0.6095,0.6081,0.6065,0.6022,0.6007,0.5941,0.5947,0.5941,0.5918,0.5917,0.5873,0.5866,0.5847,0.5797,0.5786,0.5768,0.579,0.567,0.5668,0.5666,0.567,0.5667,0.5665,0,0,0,0,0,0.61,0.6068,0.6064,0.6052,0.5986,0.594,0.5931,0.591,0.5917,0.5899,0.5875,0.5868,0.5778,0.5792,0.578,0.5761,0.5671,0.5669,0.5666,0.5671,0.5668,0.5665,0,0,0,0,0,0,0.6107,0.6061,0.6057,0.601,0.5979,0.5937,0.5915,0.5908,0.5873,0.5874,0.5849,0.5839,0.5795,0.5773,0.5791,0.5717,0.5725,0.572,0.5732,0.5729,0.5726,0.5732,0.5786,0,0,0,0,0,0.6104,0.6071,0.6033,0.5995,0.598,0.595,0.593,0.5916,0.5883,0.587,0.5841,0.5809,0.5773,0.575,0.5715,0.5667,0.5657,0.5648,0.5646,0.5644,0.564,0.5613,0.5609,0.5658,0.5658,0.5658,0,0,0.6095,0.6066,0.6047,0.5996,0.597,0.5937,0.5939,0.5903,0.5878,0.5864,0.5819,0.5798,0.5759,0.5713,0.5691,0.5694,0.5624,0.5641,0.564,0.5636,0.561,0.5606,0.5602,0.5656,0.5656,0.5657,0,0,0.6062,0.6037,0.6003,0.5978,0.5941,0.5922,0.5914,0.5874,0.5859,0.5814,0.5803,0.5773,0.5712,0.5685,0.5664,0.5624,0.5616,0.5613,0.56,0.5575,0.5571,0.5567,0.5552,0.5548,0.5609,0.5609,0.5609,0,0.6056,0.6005,0.5986,0.5951,0.5929,0.5917,0.5882,0.5858,0.5811,0.5795,0.58,0.5724,0.5698,0.5645,0.5635,0.5619,0.5608,0.5617,0.5573,0.5569,0.5566,0.5551,0.5546,0.5609,0.5609,0.5609,0.5609,0,0.5999,0.5965,0.5942,0.5898,0.5873,0.5838,0.5813,0.5791,0.5781,0.5761,0.5716,0.5684,0.5643,0.563,0.5618,0.5575,0.5578,0.5579,0.5586,0.5561,0.5547,0.5542,0.5609,0.5609,0.5609,0.5609,0,0,0.5966,0.5914,0.5905,0.5886,0.5845,0.5817,0.5782,0.5743,0.5724,0.5693,0.5662,0.5612,0.5613,0.5589,0.5575,0.5553,0.5523,0.5555,0.5554,0.555,0.5473,0.5472,0.5466,0.5518,0.5517,0.5516,0.5476,0,0.5927,0.5865,0.5848,0.5795,0.5763,0.5752,0.5722,0.5693,0.5674,0.5644,0.5623,0.5588,0.5591,0.5577,0.5555,0.5531,0.5507,0.5534,0.5489,0.5487,0.5497,0.5459,0.5458,0.5421,0.5471,0.547,0.5469,0,0.5873,0.5842,0.5786,0.5751,0.5736,0.5709,0.5673,0.5645,0.5612,0.56,0.5575,0.5563,0.5526,0.5537,0.5486,0.5505,0.5486,0.5471,0.547,0.5463,0.5475,0.545,0.5409,0.5403,0.546,0.5461,0.5462,0,0.5853,0.5798,0.5757,0.5741,0.5698,0.568,0.5661,0.563,0.5608,0.5576,0.5562,0.5526,0.5506,0.5478,0.5457,0.5467,0.5408,0.5417,0.5396,0.5396,0.5382,0.5383,0.5335,0.5372,0.5372,0.5372,0.5372,0,0.5811,0.5777,0.5748,0.5723,0.5685,0.5666,0.5629,0.561,0.5582,0.5553,0.5542,0.5515,0.549,0.5459,0.5443,0.5403,0.5394,0.5383,0.5378,0.5383,0.5384,0.5368,0.537,0.5371,0.5371,0.5371,0.5372,0,0.5782,0.5761,0.5716,0.5681,0.5671,0.5644,0.5613,0.5589,0.5571,0.5534,0.5525,0.5496,0.546,0.5437,0.5391,0.538,0.5335,0.5333,0.5346,0.5344,0.5324,0.5326,0.5264,0.5255,0.5299,0.5299,0.5298,0,0.5755,0.5729,0.5691,0.5672,0.5653,0.5621,0.56,0.558,0.5558,0.5521,0.55,0.5464,0.5433,0.5376,0.535,0.5315,0.531,0.5291,0.5305,0.531,0.5309,0.531,0.5307,0.5288,0.5288,0.5288,0.5287,0,0.571,0.5702,0.5671,0.5638,0.5612,0.5585,0.5557,0.5541,0.5517,0.5493,0.5457,0.5433,0.5387,0.535,0.5313,0.5293,0.5286,0.5284,0.5277,0.528,0.5289,0.5283,0.5339,0.5285,0.5285,0.5285,0.5285,0.5286,0.568,0.5657,0.5627,0.5594,0.5572,0.5547,0.5522,0.5502,0.5471,0.5433,0.5424,0.5385,0.5355,0.5305,0.5284,0.5254,0.5256,0.5246,0.5244,0.5241,0.524,0.5296,0.5247,0.5247,0.5247,0.5247,0.5247,0,0.5634,0.5615,0.5585,0.5547,0.5521,0.5519,0.5489,0.5467,0.5434,0.5406,0.5377,0.5336,0.5301,0.5274,0.5239,0.5219,0.5215,0.521,0.5211,0.5206,0.5241,0.525,0.5215,0.5215,0.5215,0.5215,0.5215,0.5215,0.5607,0.5567,0.5556,0.5505,0.5486,0.5449,0.5432,0.5409,0.5387,0.5342,0.5313,0.5297,0.527,0.5233,0.5201,0.5194,0.518,0.5176,0.5169,0.52,0.5204,0.5207,0.5216,0.5174,0.5174,0.5137,0.5136,0.5136]},{"header":{"parameterUnit":"m.s-1","parameterCategory":1,"la1":30.2991,"la2":30.254,"lo1":-89.0895,"lo2":-89.0444,"dy":0.0017,"dx":0.0017,"nx":28,"ny":28,"refTime":"2023-03-17T21:00:00:Z","depth":0,"parameterNumber":3,"parameterNumberName":"V-component_of_WINDS"},"data":[0,0,0,0,0,0,0,0,0,0,0,0,0,0,0,0,0,0,0,0,0,0,0,0,0,0,0,0,0,0,0,0,0,0,0,0,0,0,0,0,0,0,0,0,0,0,0,0,0,0,0,0,0,0,0,0,0,0,-8.5761,-8.5762,0,-8.5868,-8.587,-8.5871,-8.5794,-8.579,-8.5787,-8.5784,-8.5888,-8.5894,-8.59,0,0,0,0,0,0,0,0,0,0,0,0,0,-8.5486,-8.5491,-8.5761,-8.5762,-8.5764,-8.5868,-8.587,-8.5871,-8.5794,-8.579,-8.5786,-8.5782,-8.5887,-8.5894,-8.5901,0,0,0,0,0,0,0,0,0,0,0,0,0,-8.56,-8.5493,-8.5761,-8.5738,-8.5737,-8.5868,-8.587,-8.5871,-8.5795,-8.579,-8.5785,-8.578,-8.5884,-8.5893,-8.5902,-8.6059,0,0,-8.5929,-8.5933,0,0,0,0,0,0,0,0,-8.5594,-8.561,-8.574,-8.574,-8.5739,-8.5813,-8.5811,-8.5934,-8.5797,-8.5773,-8.5784,-8.5778,-8.5867,-8.5877,-8.5908,-8.6064,-8.6068,-8.593,-8.5935,-8.5939,-8.5942,0,0,0,0,0,0,0,-8.5586,-8.5605,-8.5803,-8.5742,-8.5742,-8.5721,-8.5732,-8.5834,-8.5847,-8.5775,-8.5769,-8.5783,-8.5866,-8.59,-8.591,-8.607,-8.593,-8.5937,-8.5943,-8.5946,-8.636,-8.6366,0,0,0,0,0,0,-8.5581,-8.5599,-8.58,-8.5806,-8.5653,-8.573,-8.5742,-8.5794,-8.5846,-8.5849,-8.5788,-8.5779,-8.5887,-8.59,-8.5913,-8.6102,-8.5939,-8.5947,-8.5952,-8.6355,-8.6362,-8.6368,0,0,0,0,0,0,-8.5575,-8.5599,-8.5795,-8.5702,-8.5725,-8.5741,-8.5799,-8.5799,-8.5833,-8.5856,-8.5857,-8.582,-8.5883,-8.5901,-8.6024,-8.6104,-8.5951,-8.596,-8.6348,-8.6357,-8.6365,-8.6479,0,0,0,0,0,0,-8.5567,-8.5598,-8.5659,-8.5704,-8.573,-8.5906,-8.5804,-8.5805,-8.5849,-8.5839,-8.5887,-8.589,-8.5881,-8.6011,-8.6033,-8.6114,-8.5966,-8.6341,-8.6352,-8.6362,-8.6468,-8.649,-8.6509,0,0,0,0,0,-8.5558,-8.5685,-8.5662,-8.5687,-8.5807,-8.5911,-8.5926,-8.5914,-8.5856,-8.5917,-8.5931,-8.5888,-8.6092,-8.6024,-8.6048,-8.6133,-8.6336,-8.6349,-8.6361,-8.6459,-8.6486,-8.6509,0,0,0,0,0,0,-8.5647,-8.569,-8.5665,-8.5811,-8.5858,-8.5897,-8.5974,-8.5943,-8.6006,-8.5994,-8.5976,-8.5987,-8.6117,-8.6137,-8.6061,-8.6288,-8.6204,-8.6222,-8.627,-8.6296,-8.6316,-8.6309,-8.5974,0,0,0,0,0,-8.5684,-8.5766,-8.5799,-8.5924,-8.5949,-8.5958,-8.6002,-8.599,-8.6037,-8.6056,-8.6079,-8.6125,-8.62,-8.6249,-8.6318,-8.6471,-8.648,-8.6541,-8.6561,-8.6578,-8.6594,-8.6676,-8.6704,-8.6409,-8.6409,-8.6409,0,0,-8.576,-8.5794,-8.5847,-8.5943,-8.5978,-8.6062,-8.5975,-8.6067,-8.6129,-8.6069,-8.6188,-8.6207,-8.6257,-8.6395,-8.6457,-8.6416,-8.6677,-8.6594,-8.6607,-8.6614,-8.6692,-8.672,-8.6745,-8.6418,-8.6416,-8.6415,0,0,-8.5943,-8.5977,-8.6086,-8.6123,-8.6178,-8.6183,-8.6209,-8.6254,-8.6265,-8.6384,-8.6341,-8.6414,-8.6542,-8.658,-8.6616,-8.6815,-8.6777,-8.6838,-8.6945,-8.7026,-8.7049,-8.7069,-8.714,-8.7166,-8.6853,-8.6854,-8.6854,0,-8.6031,-8.6158,-8.6145,-8.6242,-8.6286,-8.6237,-8.6347,-8.6383,-8.6457,-8.6488,-8.6441,-8.6602,-8.6632,-8.6779,-8.6828,-8.6858,-8.6887,-8.6832,-8.7047,-8.7067,-8.7086,-8.7154,-8.7181,-8.6861,-8.686,-8.6859,-8.6858,0,-8.6263,-8.6352,-8.6433,-8.6508,-8.6561,-8.6663,-8.6665,-8.672,-8.6703,-8.6713,-8.6835,-8.6869,-8.6946,-8.698,-8.6963,-8.7125,-8.7098,-8.7049,-8.6965,-8.7121,-8.7185,-8.721,-8.6871,-8.6868,-8.6866,-8.6864,0,0,-8.6504,-8.6573,-8.6603,-8.6637,-8.6694,-8.6762,-8.6862,-8.6939,-8.6986,-8.7039,-8.7122,-8.7232,-8.7189,-8.723,-8.7217,-8.7288,-8.7444,-8.7231,-8.7231,-8.7269,-8.7624,-8.7661,-8.7691,-8.7419,-8.7424,-8.7428,-8.762,0,-8.669,-8.6867,-8.6859,-8.7024,-8.7106,-8.7062,-8.7149,-8.7193,-8.7206,-8.7275,-8.7287,-8.7367,-8.7303,-8.7327,-8.7395,-8.7411,-8.7515,-8.7396,-8.7496,-8.7499,-8.7485,-8.7724,-8.7762,-8.7942,-8.7645,-8.7649,-8.7652,0,-8.693,-8.6994,-8.7168,-8.7215,-8.7249,-8.7328,-8.7398,-8.7466,-8.7515,-8.7518,-8.7566,-8.7542,-8.7642,-8.7556,-8.7693,-8.7613,-8.7653,-8.7667,-8.7673,-8.7682,-8.7585,-8.7739,-8.7999,-8.8026,-8.7691,-8.7688,-8.7685,0,-8.709,-8.7219,-8.734,-8.737,-8.7427,-8.7484,-8.751,-8.7554,-8.7601,-8.7662,-8.7692,-8.7763,-8.7802,-8.7857,-8.7852,-8.779,-8.7992,-8.7905,-8.7997,-8.7998,-8.8042,-8.8039,-8.8312,-8.8068,-8.8068,-8.8067,-8.8066,0,-8.7298,-8.7407,-8.7412,-8.7487,-8.7607,-8.7596,-8.7715,-8.7734,-8.7774,-8.7851,-8.7816,-8.7888,-8.7878,-8.7951,-8.7948,-8.8062,-8.808,-8.8085,-8.8083,-8.8088,-8.8088,-8.8114,-8.8102,-8.8074,-8.8073,-8.8071,-8.807,0,-8.7496,-8.7504,-8.7634,-8.7678,-8.7692,-8.7778,-8.7815,-8.7885,-8.7895,-8.7993,-8.8015,-8.8029,-8.8113,-8.8114,-8.8209,-8.8206,-8.8347,-8.833,-8.8331,-8.8328,-8.8421,-8.8412,-8.872,-8.876,-8.849,-8.8492,-8.8494,0,-8.7629,-8.7712,-8.7766,-8.7816,-8.7847,-8.7927,-8.7976,-8.7968,-8.802,-8.8083,-8.8145,-8.8226,-8.829,-8.8425,-8.8443,-8.8516,-8.8501,-8.8604,-8.8511,-8.8514,-8.8502,-8.8498,-8.8506,-8.8621,-8.8624,-8.8627,-8.8629,0,-8.7864,-8.7865,-8.7937,-8.8012,-8.8071,-8.8129,-8.8182,-8.8225,-8.8223,-8.8283,-8.8369,-8.8419,-8.8517,-8.8598,-8.8668,-8.8693,-8.8661,-8.8658,-8.8683,-8.869,-8.8687,-8.869,-8.8381,-8.8651,-8.8649,-8.8647,-8.8646,-8.8645,-8.8034,-8.8106,-8.8156,-8.8238,-8.8278,-8.8329,-8.8397,-8.8417,-8.8489,-8.857,-8.8561,-8.8657,-8.8703,-8.8795,-8.8826,-8.89,-8.8864,-8.89,-8.891,-8.8919,-8.8929,-8.8676,-8.8913,-8.8912,-8.8911,-8.8911,-8.891,0,-8.8267,-8.8298,-8.8374,-8.8451,-8.8515,-8.8482,-8.8539,-8.8595,-8.8681,-8.8728,-8.8793,-8.8892,-8.897,-8.8995,-8.907,-8.9124,-8.9112,-8.9144,-8.914,-8.9147,-8.8957,-8.8928,-8.9154,-8.9154,-8.9154,-8.9153,-8.9153,-8.9153,-8.8397,-8.8517,-8.8524,-8.8663,-8.8692,-8.8788,-8.8824,-8.887,-8.8908,-8.9021,-8.9087,-8.9103,-8.9142,-8.922,-8.9289,-8.9295,-8.9324,-8.9363,-8.9362,-8.9184,-8.916,-8.9137,-8.9109,-8.9369,-8.937,-8.9545,-8.9547,-8.9548]}]]